Location: Cheyres
(46.8153°N, 6.7877°E)
Time: 04:15:34
(UTC+00:00)

Resurs 01 Rocket - Pass Details

Date: 11 May 2021
Orbit: 633 x 645 km, 97.9° (Epoch: 18 June)

Event Time Altitude Azimuth Distance (km) Brightness Sun altitude
Exits shadow 20:02:14 - 165° (SSE) 2,156 3.8 -10.1°
Reaches altitude 10° 20:02:32 10° 165° (SSE) 2,036 3.7 -10.2°
Maximum altitude 20:06:59 89° 81° (E) 650 1.6 -10.8°
Drops below altitude 10° 20:11:27 10° 347° (NNW) 2,047 5.1 -11.3°
Sets 20:13:40 0° 347° (NNW) 2,959 6.1 -11.6°
